STARLINK-5124 (54011 NORAD) Tracking and Keplerian Element Data

This shows tracking and keplerian element data for the satellite.

Feedback or suggestion? Click here.




ElementValue
Catalog54011
NameSTARLINK-5124
Epoch Orbit766
Epoch Day325.25001157
Epoch Year2022
RAAN222.5206
Inclination53.215
Eccentricity0.0002128
Argument of Perigee20.9634
Mean Anonmoly273.3704
Mean Motion15.73221856
Decay Rate-0.0003916
L11 54011U 22125AZ 22325.25001157 -.00039160 00000+0 -27560-3 0 9991
L22 54011 53.2150 222.5206 0002128 20.9634 273.3704 15.73221856 7660



Live tracking and technical data element details for STARLINK-5124 (NORAD 54011). STARLINK-5124 can be tracked NOW for your location showing map with azimuth and elevation plus other details from your city location.







IsCatalogInMostPopularTable: catalog: 54011, numindb: 3
Update: records affected: 1



GetName: 54011 STARLINK-5124

Hit Count: updated at: Fri, 09 Dec 2022 19:31:07 GMT